Date,TemperatureHighF,TemperatureAvgF,TemperatureLowF,DewpointHighF,DewpointAvgF,DewpointLowF,HumidityHigh,HumidityAvg,HumidityLow,PressureMaxIn,PressureMinIn,WindSpeedMaxMPH,WindSpeedAvgMPH,GustSpeedMaxMPH,PrecipitationSumIn
2013-1-1,45.5,42.5,39.4,40.3,38.2,35.2,87,84,79,30.04,29.49,12,6,20,0.00
2013-1-2,50.2,46.0,42.1,48.2,43.8,39.1,94,92,86,30.30,30.05,10,5,16,0.20
2013-1-3,50.7,49.2,46.4,48.8,47.1,44.2,93,92,92,30.62,30.29,12,6,18,0.00
2013-1-4,49.3,47.7,46.2,47.3,45.5,44.0,93,92,89,30.65,30.57,10,4,18,0.00
2013-1-5,50.7,45.4,40.8,47.1,43.1,38.4,94,92,84,30.57,30.46,9,2,12,0.00
2013-1-6,50.2,46.6,43.5,48.5,44.7,41.6,94,93,92,30.52,30.34,5,1,8,0.00
2013-1-7,48.6,45.8,40.5,46.6,43.9,38.6,94,93,92,30.32,30.15,5,3,8,0.03
2013-1-8,50.5,46.2,36.9,48.6,44.2,35.0,94,93,92,30.25,30.15,5,2,10,0.28
2013-1-9,41.5,37.3,32.0,39.9,35.7,30.4,94,94,93,30.25,30.13,3,0,5,0.03
2013-1-10,38.5,36.2,33.1,36.9,34.6,31.5,94,94,93,30.13,29.97,2,0,6,0.00
2013-1-11,40.6,36.7,32.7,39.0,35.0,31.2,94,93,92,30.10,29.94,3,1,7,0.00
2013-1-12,40.1,36.0,27.5,36.2,32.4,25.0,92,87,77,30.08,29.89,6,3,13,0.05
2013-1-13,35.8,31.4,27.0,33.4,29.3,24.9,93,92,90,30.17,30.04,5,1,7,0.05
2013-1-14,41.5,35.0,31.8,38.0,32.8,28.9,94,92,87,30.05,29.71,5,1,8,0.14
2013-1-15,37.6,30.5,25.6,32.6,27.6,23.1,93,89,79,29.88,29.75,5,1,7,0.00
2013-1-16,34.2,29.3,25.3,28.9,25.7,22.8,91,86,79,29.98,29.81,5,2,9,0.00
2013-1-17,35.8,32.8,29.8,30.5,28.2,25.2,86,83,79,30.00,29.79,9,4,17,0.00
2013-1-18,34.0,32.0,29.5,29.4,27.2,25.3,86,83,78,29.78,29.43,10,7,20,0.00
2013-1-19,34.7,33.0,30.7,30.4,28.6,26.5,87,83,80,29.60,29.44,7,3,12,0.00
2013-1-20,35.8,34.5,33.4,30.3,29.1,27.6,84,81,78,29.58,29.38,9,5,16,0.00
2013-1-21,34.0,32.4,30.4,31.9,29.9,28.1,92,90,85,29.43,29.28,5,2,10,0.05
2013-1-22,36.4,33.6,31.0,32.8,29.9,27.3,90,86,76,29.77,29.43,6,3,14,0.05
2013-1-23,34.9,31.5,27.1,32.3,28.5,24.3,92,89,85,29.89,29.77,5,1,8,0.00
2013-1-24,38.6,33.4,27.5,32.3,29.1,22.7,91,84,75,30.09,29.89,5,2,9,0.00
2013-1-25,35.1,31.7,28.2,31.1,27.9,23.0,92,85,80,30.05,29.44,13,8,21,0.42
2013-1-26,43.3,38.3,30.6,40.1,35.5,28.5,94,90,82,29.73,29.24,13,5,20,0.36
2013-1-27,46.9,43.1,39.4,44.7,38.6,34.9,93,84,73,29.43,29.04,15,11,28,0.05
2013-1-28,49.1,42.7,37.9,44.0,38.3,34.1,92,85,79,29.57,29.14,18,11,30,0.25
2013-1-29,53.6,47.6,40.1,50.6,44.0,36.8,93,87,78,29.51,29.26,16,7,25,0.03
2013-1-30,48.2,44.8,41.7,44.2,40.8,37.5,91,86,75,29.90,29.40,24,8,39,0.00
2013-1-31,48.0,44.3,40.6,41.1,39.2,36.5,89,82,75,29.88,29.57,17,11,29,0.00
2013-2-1,46.6,41.4,36.3,40.7,37.5,32.0,92,86,78,29.77,29.44,12,5,17,0.00
2013-2-2,40.8,35.8,26.8,32.1,29.4,24.0,90,78,68,30.22,29.78,6,3,12,0.00
2013-2-3,48.4,41.8,27.9,46.3,39.6,25.3,94,92,90,30.19,29.79,13,7,21,0.00
2013-2-4,47.3,43.3,36.3,44.9,38.8,33.1,92,84,76,29.88,29.56,17,12,29,0.00
2013-2-5,42.9,38.9,34.2,39.8,34.8,29.6,92,85,75,29.56,29.23,16,11,30,0.00
2013-2-6,43.9,39.4,33.9,37.6,31.7,26.6,86,74,60,30.15,29.45,8,5,23,0.00
2013-2-7,40.8,36.1,31.1,36.3,32.2,26.8,91,86,80,30.16,29.99,6,2,10,0.00
2013-2-8,44.8,37.8,30.7,39.1,34.3,28.7,94,87,75,30.21,30.07,6,2,12,0.00
2013-2-9,41.9,37.9,35.2,36.6,34.7,32.8,93,88,81,30.17,29.77,5,2,7,0.00
2013-2-10,39.4,38.1,36.1,36.1,34.9,31.5,90,88,83,29.76,29.24,7,4,14,0.20
2013-2-11,41.2,36.9,34.5,31.7,29.5,26.6,85,75,63,29.84,29.29,8,5,18,0.00
2013-2-12,39.4,35.0,28.9,30.6,27.9,25.0,87,75,67,30.13,29.85,5,1,10,0.00
2013-2-13,39.4,34.9,32.7,37.5,30.7,26.2,93,85,73,30.11,29.66,14,9,23,0.40
2013-2-14,48.6,43.6,39.6,44.7,40.6,37.4,94,89,82,29.92,29.56,10,5,19,0.27
2013-2-15,49.6,43.1,36.3,44.0,39.3,34.2,93,87,78,30.23,29.92,6,3,14,0.00
2013-2-16,49.8,41.4,33.6,42.2,37.2,31.8,95,85,74,30.26,30.15,6,2,9,0.00
2013-2-17,50.2,41.6,35.6,40.3,34.8,29.9,92,78,58,30.23,30.11,10,4,17,0.00
2013-2-18,49.3,39.8,33.4,35.8,32.5,30.0,88,76,57,30.19,30.09,7,3,12,0.00
2013-2-19,49.1,37.4,27.9,38.8,32.5,25.6,93,83,66,30.17,30.07,3,1,8,0.00
2013-2-20,40.6,36.9,32.4,36.0,31.3,26.0,92,80,69,30.34,30.15,8,5,16,0.00
2013-2-21,42.6,35.7,32.7,27.3,25.0,21.9,76,65,53,30.35,30.23,9,6,17,0.00
2013-2-22,37.0,34.5,32.5,26.8,24.8,22.1,76,67,62,30.28,30.17,7,3,12,0.00
2013-2-23,38.3,34.7,32.7,34.6,30.0,26.5,90,83,76,30.36,30.17,3,1,12,0.03
2013-2-24,42.6,35.6,30.0,33.9,29.8,26.3,86,79,68,30.47,30.30,5,2,8,0.00
2013-2-25,44.8,39.5,29.1,37.2,33.4,25.9,89,79,71,30.59,30.41,6,3,12,0.00
2013-2-26,43.3,40.1,34.3,36.9,34.1,29.2,83,79,77,30.74,30.52,7,4,13,0.00
2013-2-27,49.6,37.6,28.6,37.2,31.8,25.5,92,80,60,30.72,30.63,5,1,7,0.00
2013-2-28,51.8,38.4,26.2,37.7,30.5,23.7,91,75,45,30.65,30.51,3,1,7,0.00
2013-3-1,47.7,42.4,30.6,36.8,33.4,26.3,86,71,58,30.56,30.47,6,2,10,0.00
2013-3-2,48.0,36.5,24.6,39.4,31.6,21.8,93,83,70,30.50,30.31,3,1,8,0.00
2013-3-3,51.4,41.2,31.4,40.6,35.4,29.4,94,81,63,30.33,30.12,7,2,12,0.00
2013-3-4,49.8,40.5,34.0,36.1,32.7,29.9,87,74,52,30.12,29.76,8,4,15,0.00
2013-3-5,54.9,40.5,31.6,41.7,34.8,29.2,94,81,60,29.76,29.62,5,2,8,0.00
2013-3-6,47.1,42.3,37.8,40.4,37.4,34.6,88,83,77,29.64,29.51,9,6,21,0.00
2013-3-7,50.7,44.7,41.4,44.5,40.0,38.2,90,84,72,29.55,29.36,9,6,18,0.07
2013-3-8,46.9,43.3,41.4,40.8,39.0,37.4,89,85,79,29.58,29.35,9,8,18,0.00
2013-3-9,41.7,39.3,36.3,37.6,36.1,33.8,91,88,83,29.78,29.55,7,4,13,0.07
2013-3-10,41.2,35.9,27.9,33.9,26.8,17.4,90,70,49,29.99,29.73,13,7,25,0.03
2013-3-11,36.9,28.7,24.6,24.4,20.5,17.6,83,72,54,30.04,29.89,9,4,17,0.00
2013-3-12,44.4,34.4,24.1,31.4,25.1,18.4,82,69,52,30.02,29.88,6,3,12,0.00
2013-3-13,46.2,36.0,26.1,31.5,26.9,21.9,88,71,44,30.03,29.81,5,2,12,0.00
2013-3-14,44.4,34.5,21.0,37.5,30.2,17.8,91,84,67,30.03,29.77,10,3,16,0.03
2013-3-15,48.0,41.5,37.6,44.2,38.5,35.2,93,89,80,29.75,29.32,10,5,16,0.12
2013-3-16,46.0,41.6,37.9,41.8,37.9,35.4,93,87,79,29.34,29.19,6,3,10,0.13
2013-3-17,43.5,38.8,34.2,38.9,35.8,31.5,95,89,82,29.20,29.11,7,2,12,0.10
2013-3-18,43.7,36.2,28.9,38.6,32.5,27.2,95,87,76,29.41,29.12,10,3,18,0.00
2013-3-19,46.4,37.6,25.3,37.5,32.2,22.8,94,81,64,29.57,29.36,7,2,10,0.03
2013-3-20,42.3,38.2,33.1,35.9,32.6,28.8,87,80,73,30.04,29.57,6,4,10,0.00
2013-3-21,42.6,37.1,30.6,30.9,28.8,26.3,85,72,59,30.05,29.90,12,7,21,0.00
2013-3-22,36.5,34.8,33.1,31.8,30.5,28.3,89,84,73,29.90,29.69,14,11,26,0.03
2013-3-23,37.6,34.4,32.7,30.5,28.9,25.4,91,80,72,30.06,29.78,13,9,25,0.05
2013-3-24,39.2,35.1,32.5,25.7,24.5,22.7,73,65,52,30.16,29.96,13,8,28,0.00
2013-3-25,41.9,36.3,33.6,28.2,25.5,23.4,73,65,52,30.16,30.08,12,8,24,0.00
2013-3-26,40.5,35.3,31.8,29.2,26.0,24.1,78,69,54,30.13,29.99,9,6,16,0.00
2013-3-27,40.8,33.9,28.4,30.2,26.5,23.8,84,75,58,30.05,29.91,9,4,18,0.00
2013-3-28,44.2,34.8,25.0,30.8,24.8,19.1,87,68,47,30.07,29.92,8,3,15,0.00
2013-3-29,45.9,33.7,21.7,27.5,22.5,18.0,90,66,40,29.99,29.88,7,3,14,0.00
2013-3-30,46.9,33.7,21.7,30.2,23.5,17.7,88,68,38,30.05,29.88,5,2,9,0.00
2013-3-31,47.1,35.6,25.0,28.6,23.7,20.8,85,64,38,30.07,29.99,8,4,16,0.00
2013-4-1,45.9,37.1,30.0,29.5,25.3,22.3,81,64,44,30.04,29.94,10,5,18,0.00
2013-4-2,46.4,36.7,25.5,32.1,25.6,21.1,89,65,47,30.22,30.02,7,3,15,0.00
2013-4-3,48.7,37.1,23.9,32.8,25.9,20.4,92,67,42,30.25,30.17,8,4,14,0.00
2013-4-4,49.8,38.6,28.9,30.8,26.3,21.0,86,64,33,30.24,30.14,10,5,18,0.00
2013-4-5,47.1,38.9,30.2,34.5,28.9,24.6,87,68,51,30.29,30.10,7,3,15,0.00
2013-4-6,49.5,37.2,24.3,32.6,27.2,19.9,88,68,52,30.40,30.26,9,1,15,0.00
2013-4-7,52.3,39.6,25.9,34.9,28.5,22.8,90,67,41,30.34,29.95,8,2,15,0.00
2013-4-8,49.6,41.3,35.8,33.4,30.1,28.2,80,65,46,29.95,29.63,9,7,17,0.00
2013-4-9,52.3,41.8,34.2,36.0,30.9,27.4,79,66,44,29.64,29.50,10,7,21,0.00
2013-4-10,53.4,42.1,28.4,37.9,32.2,25.2,91,70,52,29.69,29.52,7,3,13,0.00
2013-4-11,45.3,41.7,37.9,38.4,35.0,32.5,87,77,70,29.53,29.37,7,5,15,0.03
2013-4-12,56.1,45.1,39.7,45.3,39.8,36.1,90,82,67,29.69,29.29,8,4,14,0.00
2013-4-13,57.6,47.8,39.0,50.6,42.8,36.9,94,84,54,29.81,29.64,12,6,17,0.05
2013-4-14,59.4,55.8,53.4,53.3,49.5,44.4,89,80,64,29.73,29.57,18,10,25,0.03
2013-4-15,61.7,55.4,49.1,48.7,45.5,42.8,83,70,52,30.00,29.73,14,9,22,0.03
2013-4-16,57.4,51.7,43.3,46.2,43.7,38.1,89,75,57,30.03,29.66,17,10,29,0.00
2013-4-17,63.3,52.0,40.6,52.1,44.8,37.1,90,77,63,30.01,29.42,16,9,26,0.05
2013-4-18,54.5,49.0,44.1,45.3,42.3,39.6,90,78,66,29.97,29.37,22,14,36,0.12
2013-4-19,52.2,45.3,33.8,43.6,39.0,30.9,89,79,64,30.55,29.97,7,4,14,0.00
2013-4-20,61.5,45.8,32.4,43.6,36.1,30.0,94,72,42,30.56,30.37,8,3,12,0.00
2013-4-21,51.6,44.4,35.8,45.3,38.2,30.2,90,79,68,30.35,29.99,10,4,16,0.03
2013-4-22,54.5,47.2,37.2,48.8,42.9,34.8,94,85,71,30.00,29.81,14,6,23,0.00
2013-4-23,58.3,50.6,42.6,47.8,44.7,39.9,93,81,64,30.24,29.90,13,7,20,0.00
2013-4-24,56.3,48.8,42.5,50.9,45.4,40.0,93,88,79,30.32,30.09,15,5,22,0.00
2013-4-25,51.6,47.7,39.9,49.2,43.6,37.2,93,86,70,30.30,30.12,9,2,14,0.07
2013-4-26,51.1,43.3,33.2,42.1,37.5,29.8,95,81,59,30.15,29.97,13,4,23,0.03
2013-4-27,55.2,42.5,32.2,39.9,33.9,28.9,93,74,46,30.22,29.99,8,3,14,0.00
2013-4-28,50.2,43.4,31.8,46.5,39.6,28.7,93,87,77,30.15,29.77,13,6,22,0.02
2013-4-29,54.1,46.8,40.5,44.3,39.7,36.2,87,77,57,30.22,29.79,13,8,22,0.00
2013-4-30,56.7,47.3,35.4,43.4,38.2,31.5,89,72,56,30.43,30.22,7,2,12,0.00
2013-5-1,57.4,46.8,33.4,45.8,39.0,30.0,90,75,55,30.39,30.30,8,3,13,0.00
2013-5-2,60.3,47.3,31.8,43.6,35.2,22.8,94,67,24,30.36,30.23,5,1,8,0.00
2013-5-3,58.5,49.7,38.2,48.7,42.6,33.5,88,77,67,30.24,29.91,13,6,22,0.00
2013-5-4,55.6,50.9,44.1,47.6,44.5,39.2,91,79,61,30.06,29.81,12,8,20,0.00
2013-5-5,62.8,52.8,42.6,53.4,46.6,38.3,90,80,66,30.20,30.04,10,5,17,0.00
2013-5-6,65.3,52.7,39.1,50.5,44.8,36.9,94,76,51,30.18,30.10,5,2,8,0.00
2013-5-7,74.7,59.6,42.8,53.0,45.5,40.0,92,63,39,30.14,29.88,8,4,15,0.00
2013-5-8,64.4,56.8,46.6,55.6,46.7,38.7,85,69,57,29.88,29.55,12,7,21,0.00
2013-5-9,53.4,48.0,41.2,47.0,41.9,36.0,91,80,65,29.66,29.27,17,10,28,0.15
2013-5-10,57.8,50.0,44.0,50.9,45.9,39.8,92,86,77,29.75,29.33,14,8,22,0.03
2013-5-11,54.6,47.0,42.4,47.6,41.8,38.5,93,82,65,29.81,29.62,14,7,23,0.12
2013-5-12,52.2,49.0,43.7,50.0,45.0,39.8,93,86,76,29.90,29.72,12,7,21,0.30
2013-5-13,52.7,47.8,41.5,45.5,40.2,37.3,90,75,64,29.75,29.65,16,11,29,0.03
2013-5-14,54.1,48.0,42.5,43.3,39.9,37.6,88,74,59,29.65,29.31,12,6,23,0.07
2013-5-15,55.2,46.5,39.1,46.0,41.3,34.3,92,82,65,29.49,29.13,8,5,19,0.40
2013-5-16,59.9,49.0,35.4,47.0,41.4,32.3,94,76,53,29.64,29.43,8,3,13,0.00
2013-5-17,56.3,50.8,45.1,45.5,43.0,40.8,89,75,60,29.88,29.63,6,3,11,0.05
2013-5-18,50.5,48.4,46.6,48.2,46.1,44.0,94,92,89,29.87,29.71,6,3,12,0.12
2013-5-19,62.0,53.5,44.6,51.5,48.5,42.9,96,84,66,30.07,29.82,6,2,11,0.00
2013-5-20,62.4,55.7,49.3,56.4,51.6,46.6,93,86,79,30.08,29.96,6,3,10,0.00
2013-5-21,59.4,53.1,44.4,52.0,48.6,41.7,94,85,72,30.19,30.06,7,3,13,0.00
2013-5-22,56.5,51.3,44.8,46.4,42.9,36.5,94,74,58,30.23,30.11,12,6,23,0.00
2013-5-23,52.6,46.5,41.2,42.4,37.4,34.7,81,71,56,30.11,29.91,12,6,21,0.00
2013-5-24,54.9,48.4,41.9,42.4,38.4,35.6,84,69,55,30.24,29.81,9,6,22,0.00
2013-5-25,59.8,49.3,33.4,43.0,37.8,30.8,94,67,40,30.31,30.21,6,2,12,0.00
2013-5-26,62.8,49.5,34.9,53.2,43.0,32.5,95,79,58,30.26,29.97,6,2,10,0.00
2013-5-27,55.8,47.7,38.1,48.9,43.6,35.6,93,86,66,29.97,29.54,12,6,19,0.35
2013-5-28,54.1,50.1,44.6,50.4,46.3,42.4,94,87,75,29.63,29.54,7,3,12,0.25
2013-5-29,61.0,54.4,42.0,54.1,48.3,38.1,91,80,71,29.90,29.62,6,4,12,0.00
2013-5-30,65.7,56.5,48.4,54.9,50.2,44.9,93,80,65,30.15,29.85,7,3,13,0.00
2013-5-31,62.8,53.8,42.8,53.7,47.6,40.8,95,80,63,30.29,30.14,7,3,14,0.00
2013-6-1,59.5,53.0,45.7,47.9,45.1,41.7,88,75,57,30.42,30.23,7,4,14,0.00
2013-6-2,61.1,53.5,43.2,48.9,44.7,39.6,88,73,60,30.59,30.40,7,3,14,0.00
2013-6-3,67.8,55.6,40.4,53.0,47.1,38.3,95,75,52,30.63,30.56,5,1,12,0.00
2013-6-4,71.8,60.6,46.2,51.1,47.6,42.5,89,64,43,30.59,30.22,5,3,10,0.00
2013-6-5,68.6,58.2,45.0,55.0,48.9,41.6,92,72,56,30.38,30.23,5,2,11,0.00
2013-6-6,73.2,61.0,46.2,55.8,49.2,43.3,92,67,42,30.38,30.26,5,2,10,0.00
2013-6-7,74.1,62.3,45.5,57.4,49.3,41.8,91,64,44,30.41,30.35,5,2,8,0.00
2013-6-8,71.7,61.7,48.6,52.2,47.6,43.5,84,62,40,30.41,30.21,5,2,10,0.00
2013-6-9,70.0,58.5,43.3,53.7,48.3,40.3,93,70,52,30.22,30.05,5,2,10,0.00
2013-6-10,68.4,56.9,46.2,52.6,47.0,42.4,88,70,52,30.08,30.00,7,3,12,0.00
2013-6-11,67.7,57.5,48.7,58.4,50.3,42.2,85,77,70,30.03,29.81,10,5,17,0.00
2013-6-12,63.5,58.9,55.5,57.9,55.1,51.9,93,88,79,29.81,29.64,9,5,15,0.10
2013-6-13,59.0,55.8,53.6,55.5,51.8,48.6,94,86,75,29.94,29.59,12,6,21,0.08
2013-6-14,64.4,55.2,46.8,57.9,51.1,44.3,94,86,73,29.96,29.63,10,5,21,0.32
2013-6-15,61.9,55.6,49.0,50.9,48.2,45.3,91,77,59,29.73,29.55,13,8,22,0.05
2013-6-16,66.2,60.3,52.2,55.1,50.6,48.3,92,71,53,30.05,29.72,7,3,13,0.03
2013-6-17,68.5,61.3,54.5,54.4,51.4,48.0,88,71,55,30.11,30.03,6,2,11,0.00
2013-6-18,72.3,61.8,50.0,58.4,51.2,45.6,86,69,52,30.11,29.97,5,2,8,0.00
2013-6-19,65.7,59.9,47.1,57.4,50.7,43.5,94,73,53,30.15,29.99,6,2,13,0.00
2013-6-20,68.7,58.1,43.3,58.5,51.5,41.2,95,80,67,30.11,29.81,5,2,9,0.05
2013-6-21,67.5,60.4,54.7,57.8,54.2,48.9,92,80,62,29.87,29.74,6,3,12,0.00
2013-6-22,63.4,56.1,50.0,54.0,51.3,47.1,93,84,67,29.74,29.44,13,7,22,0.28
2013-6-23,59.0,55.2,53.1,53.5,50.8,47.2,93,85,78,29.99,29.47,12,8,22,0.17
2013-6-24,62.3,55.6,46.2,50.2,47.1,42.4,87,73,60,30.35,29.99,8,6,18,0.00
2013-6-25,66.4,57.3,42.9,54.5,48.5,41.0,96,74,54,30.54,30.34,6,2,12,0.00
2013-6-26,63.9,57.8,49.4,54.4,49.7,46.6,93,75,57,30.57,30.48,8,3,15,0.00
2013-6-27,59.2,54.7,50.5,54.2,50.8,46.7,94,87,72,30.51,30.17,6,4,12,0.27
2013-6-28,59.4,56.8,52.2,57.9,54.7,47.9,95,93,84,30.19,30.04,10,5,17,0.38
2013-6-29,62.6,56.7,51.4,55.7,50.7,46.3,94,81,67,30.29,30.11,7,4,14,0.00
2013-6-30,65.7,59.6,54.4,57.1,54.6,49.9,94,84,70,30.24,30.00,12,6,19,0.03
2013-7-1,62.6,56.6,51.1,51.7,48.8,44.1,86,75,60,30.06,29.98,9,5,18,0.00
2013-7-2,58.1,55.1,51.4,54.9,51.3,46.6,94,87,78,30.00,29.51,9,6,15,0.12
2013-7-3,63.5,58.7,53.6,57.4,54.8,50.1,96,87,73,29.97,29.51,8,4,14,0.10
2013-7-4,67.2,61.0,53.6,59.9,54.9,49.4,91,81,64,30.30,29.90,13,6,23,0.00
2013-7-5,68.8,59.3,46.9,57.5,52.5,45.0,96,79,64,30.52,30.30,6,2,9,0.00
2013-7-6,69.1,60.5,49.1,59.1,53.9,47.1,96,80,65,30.56,30.44,5,1,9,0.00
2013-7-7,74.8,64.5,48.6,64.3,57.0,46.6,96,78,64,30.68,30.57,5,2,12,0.00
2013-7-8,81.1,67.8,55.1,61.5,55.9,49.9,95,69,35,30.69,30.61,3,2,8,0.00
2013-7-9,78.3,68.0,53.8,64.8,58.9,50.9,95,74,55,30.62,30.43,6,2,12,0.00
2013-7-10,75.6,66.8,57.2,63.5,58.8,51.9,94,76,63,30.45,30.40,6,3,12,0.00
2013-7-11,74.3,62.8,50.5,62.8,54.9,47.7,92,76,61,30.42,30.36,5,2,8,0.00
2013-7-12,77.9,66.4,52.9,63.9,57.5,50.9,96,75,51,30.38,30.31,5,1,10,0.00
2013-7-13,78.3,66.1,54.1,65.3,58.5,52.2,96,78,56,30.39,30.30,5,2,12,0.00
2013-7-14,70.7,60.6,49.5,58.0,53.4,47.5,96,79,51,30.37,30.26,6,2,11,0.00
2013-7-15,69.3,59.8,48.9,61.8,55.1,47.0,96,85,66,30.30,30.24,5,2,10,0.00
2013-7-16,73.8,63.4,48.9,62.6,56.0,47.2,96,78,60,30.32,30.25,5,2,9,0.00
2013-7-17,78.3,64.9,50.7,61.8,55.5,48.8,96,74,50,30.42,30.30,6,2,13,0.00
2013-7-18,81.5,68.7,52.7,64.6,58.4,50.4,96,72,50,30.46,30.38,5,1,10,0.00
2013-7-19,86.5,73.6,60.1,66.9,60.7,56.5,90,67,42,30.42,30.35,8,2,14,0.00
2013-7-20,77.9,68.7,59.2,62.0,58.5,55.8,89,71,56,30.37,30.29,7,4,11,0.00
2013-7-21,70.9,64.6,60.4,58.6,56.4,53.9,82,75,63,30.30,30.11,6,4,11,0.00
2013-7-22,82.4,69.8,57.2,67.1,60.8,53.7,89,74,58,30.12,29.98,6,4,12,0.00
2013-7-23,79.5,68.3,61.5,69.5,62.6,58.2,93,82,68,29.98,29.90,5,3,10,0.03
2013-7-24,83.3,68.0,57.9,64.3,60.6,55.9,96,79,50,29.95,29.90,5,1,8,0.03
2013-7-25,78.8,67.6,57.4,67.8,60.6,54.2,95,79,61,29.93,29.82,8,4,15,0.33
2013-7-26,78.3,66.0,54.0,62.8,57.4,52.0,95,75,55,29.97,29.89,5,2,12,0.00
2013-7-27,81.9,67.7,53.4,62.3,57.3,50.9,93,71,47,29.89,29.63,6,2,10,0.05
2013-7-28,75.7,63.4,58.1,62.4,58.6,56.1,95,85,56,29.66,29.54,9,4,18,0.82
2013-7-29,73.9,65.0,59.5,63.1,58.9,54.9,95,81,64,29.87,29.58,10,6,18,0.07
2013-7-30,71.2,63.8,57.6,59.3,56.3,54.4,93,77,60,29.88,29.83,7,4,13,0.00
2013-7-31,67.5,61.8,54.5,63.1,58.4,51.6,95,89,73,29.92,29.80,6,3,10,0.25
2013-8-1,82.4,68.2,60.4,71.2,63.0,57.8,94,84,69,29.82,29.67,9,5,13,0.03
2013-8-2,74.8,67.5,58.6,64.9,59.6,55.3,96,77,56,29.76,29.61,9,5,16,0.00
2013-8-3,70.5,63.2,56.7,57.6,54.8,52.4,91,75,56,30.01,29.68,12,5,20,0.00
2013-8-4,70.9,62.3,54.3,61.5,57.6,50.4,94,85,66,30.00,29.88,9,5,16,0.13
2013-8-5,64.4,61.1,55.4,62.8,58.2,51.0,96,90,76,29.90,29.66,8,5,14,0.75
2013-8-6,67.3,59.7,50.7,53.5,50.3,46.7,88,72,53,30.03,29.90,6,2,9,0.00
2013-8-7,71.8,60.3,49.3,54.2,50.6,45.7,90,72,50,30.08,29.93,3,1,8,0.00
2013-8-8,72.5,60.7,47.3,58.9,53.3,45.1,94,78,56,30.10,29.99,5,1,8,0.03
2013-8-9,66.0,61.3,56.3,58.9,55.0,50.7,94,80,66,30.19,29.93,8,4,15,0.03
2013-8-10,66.0,59.8,53.4,54.9,51.9,48.8,90,76,58,30.18,30.03,8,3,16,0.00
2013-8-11,63.9,59.0,52.3,56.7,53.8,50.1,94,83,69,30.02,29.93,10,5,19,0.17
2013-8-12,64.2,59.3,54.7,54.8,51.9,49.0,84,77,63,30.06,29.86,9,5,21,0.03
2013-8-13,66.6,58.8,51.3,57.9,52.6,47.3,91,80,65,30.22,30.05,7,2,14,0.03
2013-8-14,70.2,62.1,52.7,62.7,57.2,50.4,94,85,66,30.20,30.03,8,4,15,0.00
2013-8-15,73.0,65.3,61.5,65.3,62.0,59.4,96,89,74,30.03,29.86,12,4,19,0.45
2013-8-16,68.2,63.0,57.4,61.4,57.3,54.5,96,82,65,30.02,29.79,7,4,14,0.38
2013-8-17,63.9,60.3,55.8,61.4,57.3,52.6,95,90,82,29.95,29.46,10,6,16,0.57
2013-8-18,65.6,60.2,54.7,56.0,53.2,50.5,92,78,60,29.84,29.56,10,6,24,0.00
2013-8-19,66.3,59.3,48.6,56.5,52.9,45.8,93,80,65,30.26,29.84,9,4,17,0.00
2013-8-20,70.4,60.9,52.2,60.2,55.4,49.9,96,83,63,30.39,30.26,7,2,12,0.00
2013-8-21,69.9,62.2,55.2,63.4,58.0,52.0,92,86,78,30.27,30.11,9,3,16,0.00
2013-8-22,74.2,65.0,57.4,64.6,60.2,55.7,96,85,66,30.16,30.03,3,0,6,0.00
2013-8-23,73.0,65.6,59.2,64.2,60.4,57.2,93,84,73,30.06,29.90,8,3,13,0.00
2013-8-24,68.2,60.2,49.7,58.6,54.8,46.3,95,83,62,30.00,29.93,7,2,13,0.03
2013-8-25,75.4,62.6,49.8,64.5,56.7,46.7,93,82,66,30.18,29.95,6,2,9,0.00
2013-8-26,78.0,63.7,52.0,61.1,55.6,50.2,96,77,40,30.22,30.14,5,1,9,0.00
2013-8-27,69.3,60.7,50.5,60.8,55.6,48.3,94,84,67,30.21,30.10,6,2,12,0.00
2013-8-28,65.2,58.7,49.1,56.9,53.2,45.7,95,83,67,30.25,30.14,6,2,10,0.00
2013-8-29,68.2,61.1,49.8,61.4,57.0,47.6,93,87,75,30.14,30.05,8,4,15,0.00
2013-8-30,69.2,62.9,55.8,62.8,58.8,47.6,96,87,74,30.16,30.02,9,4,21,0.00
2013-8-31,63.2,56.8,49.1,51.3,47.2,43.4,85,71,59,30.41,30.17,8,4,20,0.00
2013-9-1,61.1,57.3,47.0,53.5,50.5,43.4,90,78,72,30.42,30.29,10,6,21,0.00
2013-9-2,68.8,62.1,58.6,61.7,57.4,52.8,91,85,77,30.37,30.28,13,7,21,0.00
2013-9-3,71.1,63.0,54.9,62.8,58.7,52.9,95,86,71,30.37,30.29,5,1,9,0.00
2013-9-4,74.9,62.2,52.4,63.6,55.9,47.9,96,81,54,30.29,29.98,7,2,12,0.00
2013-9-5,66.9,58.4,50.9,59.6,52.8,48.6,96,82,69,29.98,29.84,5,2,12,0.00
2013-9-6,57.0,52.8,49.0,52.8,49.6,46.9,94,89,76,29.84,29.69,5,2,9,0.47
2013-9-7,57.2,51.0,44.2,52.2,47.8,41.2,95,89,76,29.91,29.65,8,4,14,0.05
2013-9-8,59.5,51.2,44.4,54.3,46.9,41.6,93,85,71,29.97,29.88,8,3,12,0.25
2013-9-9,62.9,52.9,46.6,55.1,49.0,44.7,95,87,67,30.10,29.91,7,2,13,0.13
2013-9-10,64.0,54.3,44.1,52.2,48.3,42.3,97,81,58,30.25,30.10,7,3,14,0.00
2013-9-11,57.4,54.3,50.0,55.7,52.3,48.1,95,93,89,30.25,30.06,5,1,10,0.25
2013-9-12,66.2,58.4,51.1,60.9,56.1,49.7,97,92,79,30.09,29.99,6,2,10,0.17
2013-9-13,59.3,54.8,49.6,57.3,49.5,45.9,93,82,70,30.09,29.95,6,2,12,0.00
2013-9-14,62.4,52.8,41.5,49.4,46.2,39.1,93,79,57,30.09,29.92,5,2,10,0.00
2013-9-15,60.1,50.8,41.4,58.6,46.6,39.4,95,86,64,30.02,29.33,13,6,25,0.33
2013-9-16,55.0,50.8,46.9,47.4,44.2,41.8,85,78,70,29.43,29.30,14,9,31,0.17
2013-9-17,53.6,50.3,45.9,47.2,45.4,43.8,95,84,75,29.41,29.25,9,5,20,0.12
2013-9-18,58.9,51.3,45.9,52.3,47.2,44.2,96,86,68,29.76,29.33,8,3,19,0.17
2013-9-19,63.9,54.1,48.5,57.6,49.5,44.3,96,85,74,29.78,29.50,10,5,22,0.10
2013-9-20,60.9,55.4,50.5,52.2,49.1,46.2,92,80,66,30.13,29.77,6,3,14,0.00
2013-9-21,70.3,57.5,48.6,62.5,53.2,44.6,92,86,76,30.26,30.06,7,2,13,0.00
2013-9-22,67.8,60.4,48.7,61.7,56.7,46.8,95,88,76,30.40,30.23,7,3,16,0.00
2013-9-23,63.5,56.9,46.5,60.3,54.4,44.9,97,92,86,30.34,30.11,0,0,2,0.00
2013-9-24,67.6,60.9,57.0,60.8,56.6,54.1,91,86,76,30.10,29.92,5,1,7,0.00
2013-9-25,65.7,59.6,54.3,60.7,56.3,49.6,95,89,82,29.95,29.84,7,1,13,0.00
2013-9-26,63.8,57.3,52.3,52.8,49.7,46.8,84,76,65,30.06,29.95,6,4,14,0.00
2013-9-27,69.5,59.4,52.0,55.4,51.5,47.7,87,76,56,30.04,29.94,8,3,12,0.00
2013-9-28,68.2,56.8,47.8,54.4,49.5,44.8,89,78,53,29.93,29.81,6,3,12,0.00
2013-9-29,66.4,57.1,51.9,52.8,49.4,47.0,89,76,55,29.84,29.75,7,5,15,0.00
2013-9-30,64.8,57.5,52.6,54.6,50.9,47.4,86,79,67,29.78,29.68,7,5,14,0.00
2013-10-1,64.2,56.5,50.0,54.2,49.9,45.8,88,79,69,29.78,29.72,8,5,16,0.00
2013-10-2,62.4,58.8,53.9,58.8,54.4,49.0,92,85,75,29.76,29.69,8,5,14,0.28
2013-10-3,67.1,62.6,60.5,61.4,59.4,58.1,94,89,79,29.76,29.52,9,6,16,0.22
2013-10-4,65.4,60.9,57.7,62.7,58.5,55.1,94,92,89,29.88,29.52,8,5,17,0.00
2013-10-5,61.3,55.6,47.1,55.8,52.1,45.5,94,88,80,30.20,29.88,7,2,12,0.00
2013-10-6,67.1,55.5,44.4,59.3,52.1,43.3,97,89,75,30.26,30.14,7,2,12,0.00
2013-10-7,65.8,60.7,57.4,59.8,57.1,54.3,95,88,78,30.20,30.11,7,2,14,0.00
2013-10-8,63.0,58.4,52.2,58.9,54.9,48.9,95,88,73,30.25,30.09,8,4,15,0.03
2013-10-9,57.6,52.8,46.9,50.9,45.7,39.1,90,77,60,30.20,29.97,12,6,24,0.00
2013-10-10,53.8,46.6,40.6,41.5,38.0,34.0,80,72,62,30.24,30.02,7,3,13,0.00
2013-10-11,57.3,51.0,42.6,50.1,44.9,37.4,86,80,74,30.30,30.15,7,4,13,0.00
2013-10-12,52.7,52.2,49.6,47.4,46.8,42.9,83,81,77,30.25,30.15,7,3,12,0.00
2013-10-13,52.7,52.7,52.7,47.4,47.4,47.4,82,82,82,30.19,30.19,2,2,3,0.00
2013-10-14,52.7,52.7,52.7,47.4,47.4,47.4,82,82,82,30.19,30.19,2,2,3,0.00
2013-10-15,52.7,52.7,52.7,47.4,47.4,47.4,82,82,82,30.19,30.19,2,2,3,0.00
2013-10-16,52.7,52.7,52.7,47.4,47.4,47.4,82,82,82,30.19,30.19,2,2,3,0.00
2013-10-17,52.7,52.7,52.7,47.4,47.4,47.4,82,82,82,30.19,30.19,2,2,3,0.00
2013-10-18,56.7,53.1,45.4,54.3,51.1,44.0,96,93,89,29.91,29.64,8,4,17,0.25
2013-10-19,64.9,56.5,50.2,60.0,53.8,48.2,96,91,80,29.63,29.47,10,5,16,0.20
2013-10-20,61.0,55.4,50.7,56.8,52.6,49.3,96,90,79,29.52,29.39,10,6,16,0.05
2013-10-21,64.8,57.1,48.9,60.8,55.0,47.4,96,93,87,29.54,29.34,9,6,18,0.20
2013-10-22,63.7,59.4,57.0,59.7,56.9,54.9,95,92,83,29.33,29.11,12,7,21,0.12
2013-10-23,58.1,53.4,47.1,55.8,49.4,42.5,95,87,70,29.67,28.99,14,7,26,0.45
2013-10-24,60.6,50.3,38.5,53.7,46.3,36.6,96,86,76,29.92,29.68,6,2,10,0.00
2013-10-25,64.6,56.8,52.7,59.5,53.4,50.0,94,89,79,29.74,29.35,12,5,19,0.23
2013-10-26,59.4,54.1,46.4,55.4,51.1,44.5,96,90,75,29.50,29.24,12,4,19,0.15
2013-10-27,59.7,52.3,46.4,52.5,48.6,44.8,96,88,75,29.26,29.02,14,8,25,0.17
2013-10-28,55.1,50.3,47.6,48.7,46.5,43.4,95,87,77,29.33,28.82,14,7,23,0.22
2013-10-29,53.4,48.6,45.9,47.1,44.1,41.9,92,85,73,29.91,29.33,9,5,20,0.25
2013-10-30,53.6,47.5,39.2,50.3,44.3,37.3,95,89,80,30.02,29.76,12,4,18,0.07
2013-10-31,56.5,49.1,44.7,50.9,46.7,42.8,96,91,81,29.90,29.73,9,4,15,0.47
2013-11-1,50.7,46.5,40.5,48.7,44.3,38.6,95,92,87,29.73,29.53,9,2,17,0.13
2013-11-2,53.8,45.1,38.1,50.9,42.9,36.8,97,92,79,29.52,28.87,16,8,25,0.13
2013-11-3,51.3,44.0,32.7,44.3,40.7,30.7,94,88,72,29.39,28.92,14,8,22,0.00
2013-11-4,50.9,37.5,27.5,43.1,34.4,26.0,97,89,72,29.36,29.08,6,1,10,0.05
2013-11-5,50.5,44.8,37.6,46.7,41.9,36.3,97,90,80,29.27,29.00,9,4,16,0.22
2013-11-6,51.4,47.2,42.8,47.4,43.9,40.9,95,88,81,29.39,29.24,9,3,18,0.17
2013-11-7,52.6,45.3,37.8,46.2,41.5,35.6,95,87,73,29.59,29.39,8,4,16,0.03
2013-11-8,47.0,41.9,37.1,44.0,40.0,35.3,96,93,89,29.56,29.44,6,2,9,0.08
2013-11-9,46.0,40.9,36.7,42.2,38.5,35.2,96,91,86,29.56,29.46,6,2,12,0.20
2013-11-10,48.7,41.2,36.3,41.4,37.7,34.2,94,88,73,30.15,29.49,5,1,8,0.00
2013-11-11,55.2,48.3,41.9,54.4,46.8,38.9,97,94,87,30.12,29.87,9,5,18,0.08
2013-11-12,53.1,46.8,39.5,47.6,43.1,36.7,97,87,70,30.46,30.08,6,2,12,0.00
2013-11-13,50.5,44.1,35.9,46.9,41.4,34.3,97,90,81,30.47,29.96,12,2,17,0.00
2013-11-14,49.8,45.6,34.3,46.3,40.0,30.9,92,81,70,30.48,29.94,10,6,23,0.10
2013-11-15,51.3,41.6,30.0,47.5,39.4,27.9,95,92,84,30.52,30.41,3,1,9,0.00
2013-11-16,52.7,49.4,45.7,49.2,46.4,43.1,95,89,84,30.45,30.32,7,3,13,0.00
2013-11-17,52.0,49.2,46.6,50.4,47.8,45.2,97,95,94,30.34,29.93,6,2,9,0.00
2013-11-18,48.4,44.5,34.7,46.7,42.4,32.3,96,92,86,29.93,29.71,7,3,13,0.12
2013-11-19,41.3,35.0,28.6,39.1,31.4,25.8,95,87,68,30.04,29.71,10,2,18,0.10
2013-11-20,47.2,43.9,41.1,43.6,38.6,34.9,95,82,71,29.82,29.32,15,8,26,0.30
2013-11-21,46.2,42.0,37.9,41.8,37.6,34.7,89,85,77,29.99,29.50,9,4,15,0.00
2013-11-22,46.0,37.9,29.0,39.3,34.3,27.2,93,87,75,30.22,29.99,3,1,8,0.00
2013-11-23,41.9,32.8,24.6,39.9,30.6,22.9,96,92,82,30.35,30.20,2,0,5,0.00
2013-11-24,46.2,39.6,28.9,41.3,36.3,26.9,93,88,83,30.62,30.34,3,1,6,0.00
2013-11-25,43.6,32.6,24.3,36.5,29.7,22.5,95,89,72,30.72,30.58,2,0,3,0.00
2013-11-26,48.7,43.0,35.8,46.8,40.6,33.7,93,91,84,30.69,30.53,5,2,9,0.00
2013-11-27,52.0,48.4,40.5,49.4,46.2,38.8,96,92,88,30.56,30.46,6,3,12,0.00
2013-11-28,49.1,44.0,36.1,48.3,42.0,34.5,97,93,85,30.58,30.45,3,1,7,0.00
2013-11-29,48.9,46.2,43.5,46.4,42.4,37.7,95,87,79,30.45,30.12,14,7,23,0.03
2013-11-30,46.9,41.1,30.0,44.7,37.7,27.9,95,88,78,30.47,30.18,8,2,20,0.00
2013-12-1,51.9,47.8,45.7,48.5,45.2,43.2,95,91,87,30.58,30.37,6,2,10,0.00
2013-12-2,46.5,44.7,43.2,43.7,42.1,40.1,93,90,88,30.58,30.40,3,1,7,0.00
2013-12-3,48.7,45.1,42.6,45.9,42.1,39.6,94,89,85,30.40,30.18,7,2,11,0.00
2013-12-4,48.2,43.4,35.1,46.4,39.1,32.1,94,85,73,30.44,30.15,9,4,15,0.03
2013-12-5,48.0,43.5,37.0,46.0,38.4,30.9,93,82,66,30.31,29.76,22,12,37,0.15
2013-12-6,45.2,40.7,37.2,43.7,38.0,31.6,96,90,78,30.32,30.14,9,4,17,0.12
2013-12-7,48.7,46.3,44.8,45.9,44.3,42.9,96,93,87,30.21,30.08,10,7,22,0.08
2013-12-8,51.3,48.9,45.9,48.4,46.4,43.8,94,91,88,30.12,29.99,13,9,22,0.03
2013-12-9,52.0,47.7,39.0,48.5,45.2,37.1,95,91,87,30.30,30.12,14,5,23,0.00
2013-12-10,49.8,44.7,39.7,45.5,42.0,38.2,95,90,84,30.35,30.19,10,6,17,0.00
2013-12-11,45.5,42.2,39.7,42.2,39.3,36.5,94,89,85,30.31,30.11,8,6,16,0.00
2013-12-12,51.6,46.9,40.3,49.9,44.1,36.7,94,90,84,30.11,29.95,8,6,13,0.00
2013-12-13,53.6,49.8,43.2,51.0,47.2,39.2,95,91,83,29.98,29.77,12,7,18,0.03
2013-12-14,53.2,46.3,36.9,49.6,42.7,34.1,92,87,73,30.01,29.64,15,9,28,0.05
2013-12-15,54.1,47.3,35.6,52.7,44.5,33.2,97,90,81,29.93,29.62,14,6,22,0.10
2013-12-16,52.3,45.1,39.7,50.6,43.1,37.3,95,93,90,30.03,29.54,12,4,17,0.12
2013-12-17,42.8,37.5,30.0,39.5,35.4,28.8,97,92,87,30.16,29.82,8,3,14,0.10
2013-12-18,51.6,44.7,36.9,48.4,42.2,34.9,94,91,86,29.82,28.89,18,11,42,0.10
2013-12-19,45.0,40.3,36.3,40.5,36.2,33.9,93,86,76,29.57,28.99,16,8,26,0.05
2013-12-20,50.5,45.0,40.8,48.6,41.8,37.1,95,89,83,29.90,29.56,14,10,24,0.22
2013-12-21,53.4,48.3,43.5,48.8,44.2,39.9,93,86,78,29.64,29.27,16,9,28,0.17
2013-12-22,45.3,41.5,34.9,40.5,36.8,31.1,93,83,72,29.56,29.39,16,10,25,0.08
2013-12-23,50.2,44.1,34.9,48.3,41.6,31.7,95,91,85,29.54,28.34,18,10,35,0.12
2013-12-24,49.4,41.8,37.0,47.7,37.0,33.5,94,83,69,28.59,28.31,17,12,30,0.08
2013-12-25,43.0,36.3,31.1,39.4,34.1,29.6,96,92,86,29.08,28.58,10,4,16,0.00
2013-12-26,42.6,35.7,28.2,40.1,34.2,26.7,97,94,87,29.31,28.68,21,4,34,0.05
2013-12-27,49.5,46.0,42.6,42.8,40.3,38.5,93,81,69,28.94,28.38,23,16,40,0.00
2013-12-28,45.6,42.1,40.1,41.3,38.9,36.5,91,88,83,29.56,28.94,13,7,20,0.00
2013-12-29,46.9,41.8,37.1,41.8,38.3,33.6,92,87,80,29.95,29.56,13,7,20,0.03
2013-12-30,51.3,45.2,37.0,48.4,42.8,34.8,93,91,87,29.67,29.20,17,11,26,0.05
2013-12-31,47.7,42.9,37.2,43.9,40.2,35.4,94,90,86,29.67,29.27,13,8,21,0.10
2014-1-1,50.8,44.3,38.5,48.9,42.1,36.4,94,92,90,29.30,28.70,14,9,28,0.14
2014-1-2,49.8,44.6,39.7,44.7,41.8,37.9,95,90,81,29.25,28.82,14,7,21,0.17